Regional Weather Roundup
Issued by NWS Jackson, KY

Home | Current Version | Previous Version | Graphics & Text | Print | Product List | Glossary On
Versions: 1 2 3 4 5 6 7 8 9 10 11 12 13 14 15 16 17 18 19 20 21 22 23 24 25 26 27 28 29 30 31 32 33 34 35 36 37 38 39 40 41 42 43 44 45 46 47 48 49 50
227
ASUS43 KJKL 220810
RWRJKL

EAST KENTUCKY HOURLY WEATHER ROUNDUP
NATIONAL WEATHER SERVICE JACKSON KY
300 AM EST WED FEB 22 2017

NOTE: "FAIR" INDICATES FEW OR NO CLOUDS BELOW 12,000 FEET WITH
NO SIGNIFICANT WEATHER AND/OR OBSTRUCTIONS TO VISIBILITY.

* THESE REPORTS ARE NOT UNDER NWS QUALITY CONTROL AND MAY NOT
  REPORT WEATHER SUCH AS PRECIPITATION AND FOG.

KYZ079-080-083-085-087-088-110-112-115-119-120-220900
...EASTERN KENTUCKY...

CITY           SKY/WX    TMP DP  RH WIND       PRES   REMARKS
JACKSON        LGT RAIN  55  52  89 CALM      29.97F
LONDON         LGT RAIN  55  52  89 CALM      29.96F FOG
SOMERSET*      RAIN      54  54 100 CALM      29.96F
MONTICELLO*    LGT RAIN  55  54  96 NW7       29.96F
WILLIAMSBURG*  CLOUDY    54  54 100 E3        29.95F
MIDDLESBORO*   LGT RAIN  55  53  94 CALM      29.96F
HARLAN APT*    CLOUDY    57  45  62 CALM      29.96F
PIKE CO APT*   DRIZZLE   58  47  66 CALM      29.97S
BIG SANDY APT* DRIZZLE   57  49  76 W3        29.97S
MOREHEAD APT*  LGT RAIN  55  54  94 CALM      29.98S
ASHLAND*       CLOUDY    54  52  94 CALM      29.95R VSB 1/2
$$

KYZ035-036-041-042-044-050-067-078-099-220900
...CENTRAL KENTUCKY...

CITY           SKY/WX    TMP DP  RH WIND       PRES   REMARKS
MT STERLING*   DRIZZLE   54  54 100 CALM      29.97F
FLEMING/MASON* DRZL/FOG  55  55 100 CALM      29.97S VSB 1
DANVILLE*      LGT RAIN  54  54 100 S15G23    29.90F
LEXINGTON      CLOUDY    56  54  93 CALM      29.95F
FRANKFORT      CLOUDY    57  54  89 S10       29.92F
LOUISVILLE     CLOUDY    59  54  83 S6        29.92F
LEBANON*       LGT RAIN  55  55 100 NW5       29.94R
GLASGOW*       DRIZZLE  N/A N/A N/A SE3       29.92F
BOWLING GREEN  CLOUDY    56  54  93 SE6       29.91F
$$

KYZ091>093-OHZ055-061-077-WVZ005-015-034-035-042-220900
...SOUTHERN OHIO/WEST VIRGINIA...

CITY           SKY/WX    TMP DP  RH WIND       PRES   REMARKS
COVINGTON      CLOUDY    56  55  97 S7        29.92F FOG
COLUMBUS       CLOUDY    55  53  93 CALM      29.92F
DAYTON         CLOUDY    54  53  97 S8        29.94S FOG
WILMINGTON     CLOUDY    53  52  96 SW7       29.93F FOG
HUNTINGTON     LGT RAIN  56  54  93 SW3       29.95S
CHARLESTON     LGT RAIN  57  46  66 CALM      29.97R
PINEVILLE*     DRIZZLE   51  46  84 MISG      30.04F
BECKLEY        LGT RAIN  48  42  80 S8        30.01F
BLUEFIELD      CLOUDY    49  38  65 CALM      30.02F
LOGAN CO APT*  CLOUDY    55  46  71 CALM      29.97F
$$

VAZ002-007-008-TNZ017-027-036-066-071-220900
...SOUTHWEST VIRGINIA/EAST TENNESSEE...

CITY           SKY/WX    TMP DP  RH WIND       PRES   REMARKS
WISE*          CLOUDY    54  43  66 CALM      30.00F
JONESVILLE*    LGT RAIN  55  48  76 NE5       29.98F
ABINGDON*      CLOUDY    55  42  61 E8        29.99F
BRISTOL        MOCLDY    52  43  71 CALM      29.97F
MORRISTOWN*    CLOUDY    59  48  67 NE6       29.93F
SEVIERVILLE*   CLOUDY    55  46  71 CALM      29.92F
KNOXVILLE      CLOUDY    56  51  84 CALM      29.92F
LAFOLLETTE*    FOG       54  54 100 CALM      29.97F VSB 1/4
OAK RIDGE      CLOUDY    56  53  90 CALM      29.94F
CROSSVILLE     CLOUDY    56  52  86 CALM      29.94F
NASHVILLE      CLOUDY    57  54  89 NE5       29.91F FOG
$$

...KEY TO REMARKS...
VSB - VISIBILITY IN MILES
WCI - WIND CHILL INDEX
HX  - HEAT INDEX

$$




USA.gov is the U.S. government's official web portal to all federal, state and local government web resources and services.